Location: Newark
(48.5156°N, 1.8989°W)
Time: 05:06:04
(UTC+00:00)

Courier 1B - Visible Passes

Search period start: 17 November 2019 00:00
Search period end: 27 November 2019 00:00
Orbit: 963 x 1209 km, 28.3° (Epoch: 16 November)

Date Brightness Start Highest point End Pass type
(mag) Time Alt. Az. Time Alt. Az. Time Alt. Az.
21 Nov 10.0 06:20:16 10° SSW 06:22:40 12° S 06:25:03 10° SSE visible
22 Nov 9.9 05:27:10 10° S 05:29:15 11° S 05:31:19 10° SSE visible
23 Nov 10.0 04:34:38 10° S 04:35:49 10° SSE 04:36:58 10° SSE visible
23 Nov 9.9 06:25:34 10° SSW 06:28:27 13° S 06:31:17 10° SSE visible
24 Nov 9.8 05:31:56 10° SSW 05:35:01 13° S 05:38:02 10° SSE visible
25 Nov 9.8 04:38:57 11° SSW 04:41:34 13° S 04:44:34 10° SSE visible
25 Nov 9.9 06:31:41 10° SSW 06:34:13 12° S 06:36:42 10° SSE visible
26 Nov 9.9 03:48:40 12° SSE 03:48:40 12° SSE 03:50:50 10° SSE visible
26 Nov 9.8 05:37:35 10° SSW 05:40:47 13° S 05:43:54 10° SSE visible
